MOLNIYA 1-80

Last updated on Jan. 25, 2021, 10:42 a.m. UTC

1 21118U 91012A   21024.46787985 -.00000973  00000-0  00000+0 0  9998
2 21118  64.7579  30.6234 6876658 283.9274  13.3341  2.05247262220540
UTC
Height (km)
Latitude
Longitude
Inclination
Orbital Period
UTC large
Height (km)
Speed (km/s)
/
Latitude / Longitude
Inclination (degrees)
Orbital Period (minutes)
Azimuth
Elevation
Range (km)
Doppler Factor
iOS Compass Heading
iOS Angle

Next 30 passes for location: Hong Kong

Rise time Rise Azimuth (degrees) Set time Set Azimuth (degrees) Duration Max altitude (degrees)

No matching passes for this satellites